Regina,

6:21 AM CST on June 29, 2017 (GMT -0600)
Regina

Weather History for CYQR - March, 2013

Change the Weather History Date:

Tuesday, March 26, 2013

  Actual Average Record
Temperature  
Mean Temperature 8 °F -  
Max Temperature 17 °F 48 °F 55 °F (2017)
Min Temperature -2 °F 26 °F -2 °F (2013)
Degree Days  
Heating Degree Days 58    
Moisture  
Dew Point 4 °F    
Average Humidity 86    
Maximum Humidity 92    
Minimum Humidity 73    
Precipitation  
Precipitation 0.00 in 0.03 in - ()
Sea Level Pressure  
Sea Level Pressure 30.27 in    
Wind  
Wind Speed 12 mph ()    
Max Wind Speed 16 mph    
Max Gust Speed -    
Visibility 10.4 miles    
Events      
Averages and records for this station are not official NWS values.
T = Trace of Precipitation, MM = Missing Value Source: Averaged Metar Reports

Daily Weather History Graph

Daily Weather History Graph

Search for Another Location

Airport or City:

Trip Planner

Search our weather history database for the weather conditions in past years. The results will help you decide how hot, cold, wet, or windy it might be!

Date:

Astronomy

Mar. 26, 2013 Rise Set
Actual Time 6:47 AM CST 7:21 PM CST
Civil Twilight 6:14 AM CST 7:54 PM CST
Nautical Twilight 5:35 AM CST 8:33 PM CST
Astronomical Twilight 4:54 AM CST 9:15 PM CST
Moon 7:03 PM CST (3/26) 6:07 AM CST (3/26)
Length of Visible Light 13h 40m
Length of Day
12h 34m
Waxing Gibbous, 99% of the Moon is Illuminated
Mar 26
Waxing Gibbous
Mar 27
Full
Apr 2
Last Quarter
Apr 10
New
Apr 18
First Quarter

Hourly Weather History & Observations

Time (CST) Temp. Windchill Dew Point Humidity Pressure Visibility Wind Dir Wind Speed Gust Speed Precip Events Conditions
12:00 AM 2 °F - -1 °F 82% 30.35 in 7 mi SSE 13.8 mph - -  
12:00 AM 1.4 °F -17.6 °F -0.4 °F 92% 30.35 in 15.0 mi SSE 15.0 mph - N/A   Clear
1:00 AM 3.2 °F -15.9 °F 1.4 °F 92% 30.34 in 15.0 mi SE 16.1 mph - N/A   Partly Cloudy
1:47 AM -0.4 °F -18.4 °F - N/A% - 5.0 mi SE 12.7 mph - N/A   Mostly Cloudy
2:00 AM -0.4 °F -19.2 °F -2.2 °F 92% 30.33 in 4.0 mi SE 13.8 mph - N/A   Overcast
2:28 AM -0.4 °F -19.2 °F - N/A% - 1.5 mi SE 13.8 mph - N/A   Overcast
3:00 AM -2.2 °F -22.2 °F -4.0 °F 92% 30.31 in 1.5 mi SE 15.0 mph - N/A   Overcast
4:00 AM -0.4 °F -17.6 °F -4.0 °F 85% 30.30 in 2.0 mi SE 11.5 mph - N/A   Overcast
4:06 AM -0.4 °F -18.4 °F - N/A% - 3.0 mi SE 12.7 mph - N/A   Overcast
5:00 AM -0.4 °F -18.4 °F -4.0 °F 85% 30.28 in 3.0 mi SE 12.7 mph - N/A   Overcast
5:15 AM -0.4 °F -18.4 °F - N/A% - 2.0 mi SE 12.7 mph - N/A   Overcast
5:27 AM -0.4 °F -18.4 °F - N/A% - 1.5 mi SE 12.7 mph - N/A   Overcast
6:00 AM -1 °F - -3 °F 85% 30.28 in 2 mi SE 12.7 mph - -   Overcast
6:00 AM -0.4 °F -18.4 °F -4.0 °F 85% 30.28 in 1.5 mi SE 12.7 mph - N/A   Mostly Cloudy
6:33 AM -0.4 °F -19.2 °F - N/A% - 15.0 mi SE 13.8 mph - N/A   Partly Cloudy
7:00 AM -0.4 °F -20.5 °F -4.0 °F 85% 30.27 in 15.0 mi SE 16.1 mph - N/A   Partly Cloudy
8:00 AM 1.4 °F -16.1 °F -2.2 °F 85% 30.27 in 15.0 mi SE 12.7 mph - N/A   Partly Cloudy
9:00 AM 3.2 °F -13.9 °F 1.4 °F 92% 30.27 in 15.0 mi SE 12.7 mph - N/A   Partly Cloudy
10:00 AM 3.2 °F -13.9 °F 1.4 °F 92% 30.27 in 15.0 mi SE 12.7 mph - N/A   Partly Cloudy
11:00 AM 6.8 °F -10.0 °F 3.2 °F 85% 30.27 in 15.0 mi SE 13.8 mph - N/A   Partly Cloudy
12:00 PM 10 °F - 8 °F 89% 30.26 in 9 mi SE 13.8 mph - -  
12:00 PM 10.4 °F -6.0 °F 8.6 °F 92% 30.26 in 15.0 mi SE 15.0 mph - N/A   Partly Cloudy
1:00 PM 14.0 °F -0.2 °F 10.4 °F 86% 30.25 in 15.0 mi SE 12.7 mph - N/A   Clear
2:00 PM 14.0 °F -0.2 °F 10.4 °F 86% 30.25 in 15.0 mi SE 12.7 mph - N/A   Clear
3:00 PM 15.8 °F 1.4 °F 12.2 °F 86% 30.24 in 15.0 mi SE 13.8 mph - N/A   Clear
4:00 PM 17.6 °F 2.7 °F 12.2 °F 79% 30.23 in 15.0 mi SE 16.1 mph - N/A   Clear
5:00 PM 17.6 °F 3.7 °F 12.2 °F 79% 30.25 in 15.0 mi SE 13.8 mph - N/A   Clear
6:00 PM 17 °F - 12 °F 73% 30.25 in 9 mi SE 11.5 mph - -  
6:00 PM 17.6 °F 5.7 °F 12.2 °F 79% 30.25 in 15.0 mi SE 10.4 mph - N/A   Clear
7:00 PM 15.8 °F 2.1 °F 10.4 °F 79% 30.25 in 15.0 mi SE 12.7 mph - N/A   Partly Cloudy
8:00 PM 14.0 °F -0.2 °F 10.4 °F 86% 30.25 in 15.0 mi SE 12.7 mph - N/A   Partly Cloudy
9:00 PM 14.0 °F -1.4 °F 10.4 °F 86% 30.26 in 15.0 mi SE 15.0 mph - N/A   Clear
10:00 PM 10.4 °F -6.0 °F 8.6 °F 92% 30.27 in 15.0 mi SE 15.0 mph - N/A   Partly Cloudy
11:00 PM 8.6 °F -7.7 °F 5.0 °F 85% 30.26 in 15.0 mi SE 13.8 mph - N/A   Clear